Terug naar catalogus

SL-16 DEB

ActiefLEO
NORAD 22442·DEBRIS·🇷🇺 Russia

Gelanceerd Dec 25, 1992 vanaf Baikonur Cosmodrome

Loading…

Volgende Passages (komende 24 uur)

TLE

VersSource: Space-Track

Epoch: Sep 14, 2026, 03:50 UTC

1 22442U 92093EK  26257.15993683  .00003776  00000-0  92941-3 0  9994
2 22442  71.0974 290.7201 0090654 262.0846  97.0000 14.50422383732131

Volg SL-16 DEB in realtime met AllMySat

Download on the App Store